Weather in Silikatny

Russia / Republic of Mordovia     54°06′32″N   43°53′34″E
temp.,
°C
wind,
m/s
gust,
m/s
humid.,
%
clouds,
%
prec.,
mm/h
press.,
hPa
HPBL,
m
28 september, tue
tue2800:00+4nne4897100 0.1 1020785
03:00+4nne5997100 0.2 1021734
06:00+5ne6886100 0.1 1023930
09:00+4ne61085100 0.1 1025756
12:00+7ene6872100 0.1 10261113
15:00+8ne575755 0.1 10271387
18:00+5nne34705 0.0 102947
21:00+3nne37775 0.0 1030119
29 september, wed
wed2900:00+2nne348238 0.0 103159
03:00+1nne34849 0.0 103263
06:00+1nne348683 0.0 103275
09:00+6nne356698 0.0 1033411
12:00+9nne3452100 0.0 10321155
15:00+10n34468 0.0 10311381
18:00+6nne2262100 0.0 103111
21:00+4nne226892 0.0 103212
30 september, thu
thu3000:00+3n227411 0.0 103210
03:00+2n227935 0.0 103212
06:00+2n228385 0.0 103329
09:00+7nne24685 0.0 1033329
12:00+11n33575 0.0 1033998
15:00+11nnw3461100 0.0 1032731
18:00+8nnw237542 0.0 103279
21:00+8wnw2374100 0.0 103355
1 october, fri
fri100:00+9nw2478100 0.0 1033102
03:00+7wnw348781 0.0 103374
06:00+7nw369262 0.0 1033116
09:00+10nnw467927 0.0 1033422
12:00+14nnw456892 0.0 1033980
15:00+14nnw4566100 0.0 1033649
18:00+12wnw2473100 0.0 103384
21:00+11nw378166 0.0 1034202
2 october, sat
sat200:00+8nw23925 0.0 103443
03:00+7nw22935 0.0 103427
06:00+7nw22945 0.0 103423
09:00+11nw23795 0.0 1034303
12:00+14nnw236536 0.0 1033912
15:00+14n2261100 0.0 10331089
18:00+12ene2275100 0.0 103352
21:00+11e1177100 0.0 103411